Regional Weather Roundup
Issued by NWS Jackson, KY

Home | Current Version | Previous Version | Text Only | Print | Product List | Glossary Off
Versions: 1 2 3 4 5 6 7 8 9 10 11 12 13 14 15 16 17 18 19 20 21 22 23 24 25 26 27 28 29 30 31 32 33 34 35 36 37 38 39 40 41 42 43 44 45 46 47 48 49 50

000
ASUS43 KJKL 222010
RWRJKL

EAST KENTUCKY HOURLY WEATHER ROUNDUP
NATIONAL WEATHER SERVICE JACKSON KY
400 PM EDT FRI AUG 22 2014

NOTE: "FAIR" INDICATES FEW OR NO CLOUDS BELOW 12,000 FEET WITH
NO SIGNIFICANT WEATHER AND/OR OBSTRUCTIONS TO VISIBILITY.

* THESE REPORTS ARE NOT UNDER NWS QUALITY CONTROL AND MAY NOT
  REPORT WEATHER SUCH AS PRECIPITATION AND FOG.

KYZ079-080-083-085-087-088-110-112-115-119-120-222100
...EASTERN KENTUCKY...

CITY           SKY/WX    TMP DP  RH WIND       PRES   REMARKS
JACKSON        MOSUNNY   89  75  63 CALM      30.02F HX  99
LONDON         MOSUNNY   90  71  53 SW13      30.03F HX  96
SOMERSET*      PTSUNNY   86  70  58 SW10G17   30.04F HX  90
MONTICELLO*    MOSUNNY   90  76  63 W8        30.05F HX 101
WILLIAMSBURG*  PTSUNNY   86  73  66 W7        30.04  HX  93
MIDDLESBORO*   MOSUNNY   90  72  54 W5        30.04F HX  97
HARLAN APT*    PTCLDY    88  68  51 MISG      30.04F HX  91
BLACK MTN*       N/A     77  68  73 S3          N/A
PIKEVILLE APT* PTSUNNY   82  77  83 S3        30.02F HX  91
BIG SANDY*     CLOUDY    88  75  65 W8        30.00F HX  97
MOREHEAD APT*  MOCLDY    88  73  62 W7G17     30.00F HX  96
$$

KYZ035-036-041-042-044-050-067-078-099-222100
...CENTRAL KENTUCKY...

CITY           SKY/WX    TMP DP  RH WIND       PRES   REMARKS
MT STERLING*   PTSUNNY   86  77  74 W8        30.01S HX  97
FLEMING/MASON* PTSUNNY   86  75  70 W9        29.99F HX  95
DANVILLE*      PTSUNNY   90  73  58 SW9       30.02F HX  98
RICHMOND*      PTSUNNY   86  73  66 W7        30.00F HX  93
LEXINGTON      PTSUNNY   90  75  61 SW13      30.00F HX 100
FRANKFORT      PTSUNNY   87  74  64 W7        29.98F HX  95
$$

KYZ091>093-OHZ055-061-077-WVZ005-015-034-035-042-222100
...SOUTHERN OHIO/WEST VIRGINIA...

CITY           SKY/WX    TMP DP  RH WIND       PRES   REMARKS
COVINGTON      CLOUDY    85  75  72 SW6       29.97F HX  93
COLUMBUS       CLOUDY    83  71  67 SW9       29.96F
DAYTON         CLOUDY    84  73  69 W9        29.98F HX  90
WILMINGTON     PTSUNNY   81  72  74 SW8       29.98F
HUNTINGTON     PTSUNNY   80  76  87 MISG      29.98F
CHARLESTON     CLOUDY    81  75  82 CALM      29.99F THUNDER
PINEVILLE*     CLOUDY    75  74  98 MISG      30.11S FOG
BECKLEY        LGT RAIN  71  68  90 S3        30.10F
BLUEFIELD      CLOUDY    80  67  64 NW3       30.12F
$$

VAZ002-007-008-TNZ017-027-036-066-071-222100
...SOUTHWEST VIRGINIA/EAST TENNESSEE...

CITY           SKY/WX    TMP DP  RH WIND       PRES   REMARKS
WISE*          MOSUNNY   84  66  54 W8        30.12F
JONESVILLE*      N/A     90  72  55 W8        30.06F HX  96
ABINGDON*      MOSUNNY   86  71  61 W9        30.09F HX  91
BRISTOL        MOSUNNY   87  69  54 SW12      30.05F HX  91
OAK RIDGE      MOSUNNY   91  70  49 VRB6      30.05F HX  96
CROSSVILLE     MOSUNNY   85  69  58 W7        30.12F
NASHVILLE      PTSUNNY   92  72  51 VRB6      30.03F HX  99
$$

...KEY TO REMARKS...
VSB - VISIBILITY IN MILES
WCI - WIND CHILL INDEX
HX  - HEAT INDEX

$$


USA.gov is the U.S. government's official web portal to all federal, state and local government web resources and services.